GSAT0213 (GALILEO 17) (41861 NORAD) Tracking and Keplerian Element Data

This shows tracking and keplerian element data for the satellite.

Feedback or suggestion? Click here.




ElementValue
Catalog41861
NameGSAT0213 (GALILEO 17)
Epoch Orbit3011
Epoch Day261.78407923
Epoch Year2021
RAAN149.1238
Inclination54.7382
Eccentricity0.000242
Argument of Perigee279.5222
Mean Anonmoly80.5256
Mean Motion1.70472847
Decay Rate-8E-08
L11 41861U 16069C 21261.78407923 -.00000008 00000-0 00000+0 0 9992
L22 41861 54.7382 149.1238 0002420 279.5222 80.5256 1.70472847 30117

Live tracking and technical data element details for GSAT0213 (GALILEO 17) (NORAD 41861). GSAT0213 (GALILEO 17) can be tracked NOW for your location showing map with azimuth and elevation plus other details from your city location.

Track the satellite on the map from your city or location and see movement details for azimuth, elevation, latitude, longitude, range, height, and movement on the map or in text.







IsCatalogInMostPopularTable: catalog: 41861, numindb: 547
Update: records affected: 1



GetName: 41861 GSAT0213 (GALILEO 17)

Hit Count: updated at: Fri, 24 Sep 2021 18:57:21 GMT